Location: Hains Lake
(37.8540°N, 99.8578°W)
Time: 12:40:46
(UTC+00:00)

Transit 2A - Pass Details

Date: 25 April 2021
Orbit: 602 x 957 km, 66.7° (Epoch: 13 May)

Event Time Altitude Azimuth Distance (km) Brightness Sun altitude
Rises 13:20:58 0° 244° (WSW) 3,057 8.6 16.7°
Reaches altitude 10° 13:23:55 10° 261° (W) 2,085 7.7 17.3°
Maximum altitude 13:27:20 20° 308° (NW) 1,488 7.2 17.9°
Drops below altitude 10° 13:30:37 10° 356° (N) 1,990 8.2 18.6°
Sets 13:33:22 0° 14° (NNE) 2,873 9.2 19.1°
